Regional Weather Roundup
Issued by NWS Cleveland, OH

Home | Current Version | Previous Version | Text Only | Print | Product List | Glossary Off
Versions: 1 2 3 4 5 6 7 8 9 10 11 12 13 14 15 16 17 18 19 20 21 22 23 24 25 26 27 28 29 30 31 32 33 34 35 36 37 38 39 40 41 42 43 44 45 46 47 48 49 50

000
ASUS41 KCLE 020202
RWRCLE
OHIO REGIONAL WEATHER ROUNDUP
NATIONAL WEATHER SERVICE CLEVELAND, OH
1000 PM EDT SAT AUG 01 2015

NOTE: "FAIR" INDICATES FEW OR NO CLOUDS BELOW 12,000 FEET WITH NO
SIGNIFICANT WEATHER AND/OR OBSTRUCTIONS TO VISIBILITY.

OHZ001>008-015>018-024>027-034-035-043-044-020300-
   NORTHWEST OHIO

CITY           SKY/WX    TMP DP  RH WIND       PRES   REMARKS
DEFIANCE       LGT RAIN  71  57  61 CALM      29.93S
FINDLAY        PTCLDY    72  57  59 SW5       29.93R
TOLEDO EXPRESS MOCLDY    73  55  53 W8        29.92R
TOLEDO EXEC    CLEAR     73  54  51 W7        29.92R
LIMA           PTCLDY    71  57  61 CALM      29.96R
$$

OHZ009>014-019>023-028>033-038-089-020300-
   NORTHEAST OHIO

CITY           SKY/WX    TMP DP  RH WIND       PRES   REMARKS
CLE-HOPKINS    PTCLDY    71  54  54 SW6       29.93R
CLE-LAKEFRONT  CLEAR     75  58  55 SW9       29.89R
CUY CO. ARPT   PTCLDY    73  59  60 SW7       29.92R
LORAIN-ELYRIA  CLEAR     67  55  65 W7        29.93R
ASHTABULA      CLOUDY    66  57  72 CALM      29.92R
AKRON-CANTON   PTCLDY    71  54  54 SW3       29.94R
WOOSTER        CLEAR     62  59  90 CALM      29.95R
MANSFIELD      CLEAR     69  54  58 SW5       29.96R
YOUNGSTOWN     PTCLDY    66  54  65 S3        29.94R
$$

OHZ042-051>053-060>062-070>072-077>081-020300-
  SOUTHWEST OHIO

CITY           SKY/WX    TMP DP  RH WIND       PRES   REMARKS
CINC-COVINGTON PTCLDY    71  60  68 W3        30.00R
CINC-LUNKEN    CLEAR     68  62  81 CALM      29.98R
HAMILTON       CLEAR     66  62  87 CALM      29.99R
DAYTON         PTCLDY    70  58  65 SW6       29.99R
WRIGHT-PAT AFB NOT AVBL
DAYTON GENERAL PTCLDY    75  56  51 SW5       29.98R
WILMINGTON     LGT RAIN  68  59  73 CALM      29.99R
$$

OHZ036-037-039>041-045>050-054>059-063>069-073>076-082>088-020300-
  CENTRAL AND SOUTHEAST OHIO

CITY           SKY/WX    TMP DP  RH WIND       PRES   REMARKS
COLUMBUS       CLEAR     74  55  51 W7        29.96R
OSU AIRPORT    CLEAR     72  57  59 SW7       29.96R
BOLTON FIELD   NOT AVBL
RICKENBACK AFB CLEAR     70  58  65 SW5       29.96S
NEWARK         CLEAR     68  59  73 W7        29.96R
MARION         MOCLDY    72  54  53 W5        29.96R
LANCASTER      CLEAR     63  59  87 CALM      29.97R
ZANESVILLE     CLEAR     70  58  65 SW5       29.96R
NEW PHILLY     CLEAR     62  58  86 CALM      29.95R
$$


USA.gov is the U.S. government's official web portal to all federal, state and local government web resources and services.